Weather History for Lacon, IL

Change the Weather History Date:

Friday, March 1, 2013

  Actual Average (KPIA) Record (KPIA)
Temperature  
Mean Temperature 27 °F 34 °F  
Max Temperature 30 °F 43 °F 74 °F (1992)
Min Temperature 24 °F 26 °F -7 °F (1962)
Degree Days  
Heating Degree Days 38 30  
Month to date heating degree days 30  
Since 1 July heating degree days 4546  
Cooling Degree Days 0 0  
Month to date cooling degree days 0  
Year to date cooling degree days 0  
Moisture  
Dew Point 21 °F    
Average Humidity 80    
Maximum Humidity 86    
Minimum Humidity 72    
Precipitation  
Precipitation 0.00 in 0.08 in 0.89 in (2007)
Month to date precipitation 0.08  
Year to date precipitation 3.65  
Snow  
Snow 0.00 in 0.10 in 4.80 in (1925)
Month to date snowfall 0.1  
Since 1 July snowfall 21.4  
Snow Depth -    
Sea Level Pressure  
Sea Level Pressure 30.14 in    
Wind  
Wind Speed 8 mph (North)    
Max Wind Speed 15 mph    
Max Gust Speed 23 mph    
Visibility 9 miles    
Events Snow    
T = Trace of Precipitation, MM = Missing Value Source: NWS Daily Summary

Daily Weather History Graph

Daily Weather History Graph

Search for Another Location

Airport:

Trip Planner

Search our weather history database for the weather conditions in past years. The results will help you decide how hot, cold, wet, or windy it might be!

Date:

Astronomy

Mar. 01, 2013 Rise Set
Actual Time 6:31 AM CST 5:48 PM CST
Civil Twilight 6:03 AM CST 6:16 PM CST
Nautical Twilight 5:31 AM CST 6:48 PM CST
Astronomical Twilight 5:00 AM CST 7:20 PM CST
Moon 10:25 PM CST (3/1) 8:15 AM CST (3/1)
Length of Visible Light 12h 12m
Length of Day
11h 17m
Waning Gibbous, 83% of the Moon is Illuminated
Mar 1
Waning Gibbous
Mar 4
Last Quarter
Mar 11
New
Mar 19
First Quarter
Mar 27
Full

Hourly Weather History & Observations

Time (CST) Temp. Windchill Dew Point Humidity Pressure Visibility Wind Dir Wind Speed Gust Speed Precip Events Conditions
12:15 AM 30.2 °F - 25.5 °F 83% 30.08 in 10.0 mi Calm Calm - N/A   Light Freezing Rain
12:35 AM 29.8 °F 26.3 °F 25.7 °F 85% 30.08 in 5.0 mi North 3.5 mph - N/A   Light Freezing Rain
12:55 AM 28.4 °F 22.2 °F 24.8 °F 86% 30.09 in 4.0 mi North 5.8 mph - N/A Snow Light Snow
1:15 AM 28.9 °F 25.2 °F 24.4 °F 83% 30.08 in 5.0 mi North 3.5 mph - N/A   Scattered Clouds
1:35 AM 28.8 °F 22.6 °F 23.9 °F 82% 30.08 in 7.0 mi North 5.8 mph - N/A   Scattered Clouds
1:55 AM 28.4 °F 21.2 °F 23.4 °F 81% 30.08 in 10.0 mi North 6.9 mph - N/A   Mostly Cloudy
2:15 AM 28.0 °F 21.7 °F 23.0 °F 81% 30.08 in 10.0 mi North 5.8 mph - N/A   Scattered Clouds
2:35 AM 28.0 °F 22.8 °F 23.0 °F 81% 30.08 in 10.0 mi North 4.6 mph - N/A   Mostly Cloudy
2:55 AM 28.2 °F 20.2 °F 20.3 °F 72% 30.07 in 10.0 mi North 8.1 mph - N/A   Scattered Clouds
3:15 AM 28.4 °F 20.4 °F 21.2 °F 74% 30.08 in 10.0 mi NNW 8.1 mph - N/A   Clear
3:35 AM 27.1 °F 18.2 °F 21.0 °F 78% 30.08 in 10.0 mi North 9.2 mph - N/A   Scattered Clouds
3:55 AM 26.6 °F 18.2 °F 21.2 °F 80% 30.08 in 10.0 mi North 8.1 mph - N/A   Scattered Clouds
4:15 AM 26.4 °F 18.0 °F 21.2 °F 81% 30.08 in 10.0 mi NNW 8.1 mph - N/A   Scattered Clouds
4:35 AM 26.2 °F 18.6 °F 21.2 °F 81% 30.09 in 7.0 mi NNW 6.9 mph - N/A Snow Light Snow
4:55 AM 26.6 °F 18.2 °F 21.2 °F 80% 30.09 in 10.0 mi NNW 8.1 mph - N/A   Scattered Clouds
5:15 AM 25.7 °F 15.1 °F 20.3 °F 80% 30.09 in 7.0 mi North 11.5 mph - N/A Snow Light Snow
5:35 AM 25.3 °F 17.6 °F 20.3 °F 81% 30.09 in 10.0 mi NNW 6.9 mph - N/A Snow Light Snow
5:55 AM 24.8 °F 15.3 °F 21.2 °F 86% 30.09 in 10.0 mi NNW 9.2 mph - N/A   Overcast
6:15 AM 25.5 °F 15.5 °F 20.5 °F 81% 30.09 in 10.0 mi NNW 10.4 mph - N/A   Mostly Cloudy
6:35 AM 25.7 °F 15.1 °F 20.7 °F 81% 30.10 in 10.0 mi North 11.5 mph 16.1 mph N/A   Overcast
6:55 AM 25.7 °F 16.4 °F 20.8 °F 82% 30.11 in 10.0 mi NNW 9.2 mph - N/A   Overcast
7:15 AM 25.7 °F 15.7 °F 21.0 °F 82% 30.11 in 10.0 mi NNW 10.4 mph - N/A   Overcast
7:35 AM 25.7 °F 15.1 °F 21.0 °F 82% 30.12 in 10.0 mi NNW 11.5 mph 17.3 mph N/A   Overcast
7:55 AM 26.6 °F 15.2 °F 21.2 °F 80% 30.12 in 10.0 mi North 13.8 mph 19.6 mph N/A   Overcast
8:15 AM 25.7 °F 15.7 °F 21.2 °F 83% 30.13 in 10.0 mi NNW 10.4 mph 18.4 mph N/A   Mostly Cloudy
8:35 AM 26.1 °F 16.2 °F 21.4 °F 82% 30.13 in 10.0 mi NNW 10.4 mph - N/A   Mostly Cloudy
8:55 AM 26.6 °F 16.8 °F 21.2 °F 80% 30.13 in 7.0 mi NNW 10.4 mph 19.6 mph N/A   Mostly Cloudy
9:15 AM 26.2 °F 15.2 °F 21.2 °F 81% 30.13 in 7.0 mi North 12.7 mph 17.3 mph N/A Snow Light Snow
9:35 AM 26.4 °F 15.5 °F 21.2 °F 81% 30.13 in 7.0 mi NNW 12.7 mph 18.4 mph N/A   Scattered Clouds
9:55 AM 26.6 °F 16.2 °F 21.2 °F 80% 30.14 in 7.0 mi North 11.5 mph 17.3 mph N/A   Scattered Clouds
10:15 AM 27.1 °F 16.9 °F 21.7 °F 80% 30.14 in 10.0 mi North 11.5 mph - N/A Snow Light Snow
10:35 AM 27.5 °F 17.4 °F 21.9 °F 80% 30.14 in 10.0 mi North 11.5 mph - N/A   Scattered Clouds
10:55 AM 27.9 °F 17.8 °F 21.9 °F 78% 30.14 in 10.0 mi North 11.5 mph - N/A   Mostly Cloudy
11:15 AM 28.4 °F 18.0 °F 22.1 °F 77% 30.14 in 10.0 mi NNW 12.7 mph 18.4 mph N/A   Scattered Clouds
11:35 AM 28.6 °F 18.7 °F 22.1 °F 77% 30.14 in 10.0 mi NNW 11.5 mph 17.3 mph N/A   Scattered Clouds
11:55 AM 28.9 °F 17.7 °F 22.3 °F 76% 30.14 in 10.0 mi NNW 15.0 mph - N/A Snow Light Snow
12:15 PM 29.1 °F 17.9 °F 22.3 °F 76% 30.14 in 7.0 mi North 15.0 mph 20.7 mph N/A Snow Light Snow
12:35 PM 29.1 °F 18.9 °F 22.1 °F 75% 30.14 in 10.0 mi NNW 12.7 mph 18.4 mph N/A   Scattered Clouds
12:55 PM 29.3 °F 19.1 °F 22.1 °F 75% 30.13 in 10.0 mi NNW 12.7 mph 18.4 mph N/A   Scattered Clouds
1:15 PM 28.4 °F 17.5 °F 21.2 °F 74% 30.13 in 10.0 mi North 13.8 mph 23.0 mph N/A   Scattered Clouds
1:35 PM 29.3 °F 18.2 °F 21.9 °F 74% 30.13 in 10.0 mi North 15.0 mph 20.7 mph N/A   Scattered Clouds
1:55 PM 29.3 °F 19.6 °F 21.9 °F 74% 30.13 in 10.0 mi North 11.5 mph 20.7 mph N/A   Scattered Clouds
2:15 PM 29.1 °F 18.9 °F 22.3 °F 76% 30.13 in 10.0 mi NNW 12.7 mph 19.6 mph N/A   Clear
2:35 PM 28.8 °F 19.0 °F 22.1 °F 76% 30.13 in 10.0 mi North 11.5 mph 17.3 mph N/A Snow Light Snow
2:55 PM 28.2 °F 17.7 °F 22.5 °F 79% 30.14 in 10.0 mi NNW 12.7 mph 19.6 mph N/A Snow Light Snow
3:15 PM 27.5 °F 17.4 °F 22.5 °F 81% 30.15 in 10.0 mi NNW 11.5 mph 19.6 mph N/A Snow Light Snow
3:35 PM 27.1 °F 16.4 °F 22.5 °F 83% 30.15 in 7.0 mi NNW 12.7 mph 18.4 mph N/A Snow Light Snow
3:55 PM 27.1 °F 17.5 °F 22.5 °F 83% 30.16 in 7.0 mi North 10.4 mph - N/A Snow Light Snow
4:15 PM 26.8 °F 16.5 °F 22.3 °F 83% 30.16 in 7.0 mi North 11.5 mph 19.6 mph N/A Snow Light Snow
4:35 PM 26.6 °F 15.7 °F 22.1 °F 83% 30.16 in 7.0 mi North 12.7 mph 17.3 mph N/A Snow Light Snow
4:55 PM 26.4 °F 17.3 °F 22.5 °F 85% 30.17 in 7.0 mi NNW 9.2 mph - N/A Snow Light Snow
5:15 PM 26.1 °F 16.8 °F 22.1 °F 85% 30.18 in 7.0 mi NNW 9.2 mph 16.1 mph N/A Snow Light Snow
5:35 PM 25.5 °F 13.8 °F 21.6 °F 85% 30.18 in 7.0 mi North 13.8 mph 17.3 mph N/A Snow Light Snow
5:55 PM 25.3 °F 13.6 °F 21.0 °F 84% 30.19 in 7.0 mi North 13.8 mph 19.6 mph N/A Snow Light Snow
6:15 PM 25.2 °F 14.4 °F 21.2 °F 85% 30.19 in 7.0 mi North 11.5 mph 18.4 mph N/A Snow Light Snow
6:35 PM 24.8 °F 13.4 °F 20.3 °F 83% 30.21 in 7.0 mi North 12.7 mph 17.3 mph N/A Snow Light Snow
6:55 PM 24.8 °F 16.1 °F 19.8 °F 81% 30.21 in 10.0 mi North 8.1 mph 16.1 mph N/A Snow Light Snow
7:15 PM 24.8 °F 13.4 °F 19.6 °F 81% 30.21 in 10.0 mi North 12.7 mph 16.1 mph N/A   Unknown
7:35 PM 24.8 °F 16.1 °F 19.8 °F 81% 30.21 in 10.0 mi North 8.1 mph - N/A Snow Light Snow
7:55 PM 24.8 °F 14.6 °F 19.4 °F 80% 30.21 in 10.0 mi North 10.4 mph 16.1 mph N/A   Unknown
8:15 PM 25.0 °F 14.8 °F 19.6 °F 80% 30.21 in 10.0 mi North 10.4 mph - N/A   Unknown
8:35 PM 25.2 °F 14.4 °F 19.4 °F 79% 30.21 in 10.0 mi North 11.5 mph - N/A   Unknown
8:55 PM 25.2 °F 17.3 °F 19.4 °F 79% 30.22 in 10.0 mi North 6.9 mph - N/A   Unknown
9:15 PM 25.2 °F 15.7 °F 19.4 °F 79% 30.21 in 10.0 mi North 9.2 mph - N/A   Unknown
9:35 PM 25.2 °F 13.9 °F 19.8 °F 80% 30.21 in 10.0 mi North 12.7 mph 18.4 mph N/A   Unknown
9:55 PM 24.8 °F 14.6 °F 19.8 °F 81% 30.21 in 10.0 mi North 10.4 mph - N/A   Unknown
10:15 PM 24.6 °F 14.4 °F 19.4 °F 81% 30.21 in 10.0 mi North 10.4 mph 17.3 mph N/A   Unknown
10:35 PM 24.6 °F 15.1 °F 19.4 °F 81% 30.21 in 10.0 mi North 9.2 mph - N/A   Unknown
10:55 PM 24.6 °F 15.1 °F 18.9 °F 79% 30.21 in 10.0 mi North 9.2 mph - N/A   Unknown
11:15 PM 24.8 °F 16.9 °F 18.7 °F 78% 30.21 in 10.0 mi North 6.9 mph - N/A   Unknown
11:35 PM 24.8 °F 16.1 °F 19.2 °F 79% 30.21 in 10.0 mi North 8.1 mph - N/A   Unknown
11:55 PM 25.2 °F 18.3 °F 19.2 °F 78% 30.21 in 10.0 mi North 5.8 mph - N/A   Unknown